JES3304 SACO-SABE

Flight info

Callsign JES3304
Flight time 1h 7m
Altitude 35000
Route UTRAX UW24 SNT SNT9R
Aircraft A320/M-SDE3FGHIRWY/LB1

Departure

Time 2026-05-03 22:08
Airport Ingeniero Aeronáutico Ambrosio L.V. Taravella International Airport (SACO)

Arrival

Time 2026-05-03 23:15
Airport Aeroparque Jorge Newbery (SABE)
Time Latitude Longitude Altitude Speed Heading
2026-05-03 21:32 -31.31351 -64.21187 1621 ft 0 kts 269°
2026-05-03 21:58 -31.31350 -64.21181 1613 ft 4 kts 275°
2026-05-03 21:58 -31.31349 -64.21158 1616 ft 4 kts 264°
2026-05-03 21:58 -31.31344 -64.21127 1616 ft 4 kts 247°
2026-05-03 21:58 -31.31331 -64.21104 1623 ft 4 kts 200°
2026-05-03 21:59 -31.31319 -64.21101 1620 ft 1 kts 180°
2026-05-03 21:59 -31.31318 -64.21101 1620 ft 0 kts 180°
2026-05-03 22:03 -31.31326 -64.21101 1619 ft 2 kts 179°
2026-05-03 22:03 -31.31351 -64.21101 1618 ft 5 kts 179°
2026-05-03 22:03 -31.31391 -64.21100 1615 ft 7 kts 179°
2026-05-03 22:03 -31.31443 -64.21099 1621 ft 8 kts 179°
2026-05-03 22:04 -31.31505 -64.21081 1619 ft 10 kts 167°
2026-05-03 22:04 -31.31571 -64.21101 1615 ft 10 kts 201°
2026-05-03 22:04 -31.31649 -64.21102 1619 ft 12 kts 178°
2026-05-03 22:04 -31.31733 -64.21087 1617 ft 13 kts 152°
2026-05-03 22:05 -31.31811 -64.21031 1616 ft 14 kts 176°
2026-05-03 22:05 -31.31913 -64.21025 1618 ft 15 kts 177°
2026-05-03 22:05 -31.32024 -64.21024 1613 ft 17 kts 182°
2026-05-03 22:05 -31.32145 -64.21024 1617 ft 18 kts 179°
2026-05-03 22:06 -31.32276 -64.21021 1615 ft 19 kts 179°
2026-05-03 22:06 -31.32408 -64.21004 1617 ft 17 kts 146°
2026-05-03 22:06 -31.32422 -64.20878 1619 ft 20 kts 45°
2026-05-03 22:06 -31.32318 -64.20745 1613 ft 15 kts 43°
2026-05-03 22:07 -31.32301 -64.20727 1618 ft 0 kts 43°
2026-05-03 22:07 -31.32238 -64.20657 1618 ft 45 kts 44°
2026-05-03 22:08 -31.31840 -64.20220 1619 ft 109 kts 43°
2026-05-03 22:08 -31.31153 -64.19478 1639 ft 156 kts 39°
2026-05-03 22:08 -31.30363 -64.18641 2309 ft 152 kts 42°
2026-05-03 22:08 -31.29610 -64.17765 3044 ft 153 kts 41°
2026-05-03 22:09 -31.28846 -64.16887 3604 ft 162 kts 43°
2026-05-03 22:09 -31.28413 -64.15521 3609 ft 212 kts 99°
2026-05-03 22:09 -31.29312 -64.14017 3911 ft 241 kts 132°
2026-05-03 22:10 -31.32091 -64.11128 4624 ft 290 kts 138°
2026-05-03 22:10 -31.33611 -64.09503 5468 ft 294 kts 135°
2026-05-03 22:10 -31.35009 -64.07793 6372 ft 295 kts 128°
2026-05-03 22:10 -31.36073 -64.05717 7055 ft 300 kts 106°
2026-05-03 22:11 -31.36537 -64.03326 7819 ft 302 kts 97°
2026-05-03 22:11 -31.37007 -64.00923 8662 ft 305 kts 103°
2026-05-03 22:11 -31.37516 -63.98508 9438 ft 308 kts 103°
2026-05-03 22:11 -31.37998 -63.96041 10094 ft 314 kts 103°
2026-05-03 22:12 -31.38468 -63.93453 10310 ft 336 kts 103°
2026-05-03 22:12 -31.38960 -63.90701 10625 ft 351 kts 102°
2026-05-03 22:12 -31.39464 -63.87880 11163 ft 357 kts 103°
2026-05-03 22:12 -31.39964 -63.85010 11741 ft 362 kts 102°
2026-05-03 22:13 -31.40463 -63.82108 12388 ft 365 kts 102°
2026-05-03 22:13 -31.40961 -63.79178 13008 ft 368 kts 102°
2026-05-03 22:13 -31.41452 -63.76220 13594 ft 372 kts 102°
2026-05-03 22:13 -31.41942 -63.73232 14162 ft 375 kts 102°
2026-05-03 22:14 -31.42435 -63.70224 14719 ft 378 kts 102°
2026-05-03 22:14 -31.42927 -63.67189 15236 ft 381 kts 102°
2026-05-03 22:14 -31.43417 -63.64120 15742 ft 386 kts 102°
2026-05-03 22:14 -31.43906 -63.61016 16258 ft 390 kts 102°
2026-05-03 22:15 -31.44393 -63.57876 16765 ft 394 kts 102°
2026-05-03 22:15 -31.44879 -63.54701 17277 ft 398 kts 102°
2026-05-03 22:15 -31.45419 -63.51506 17773 ft 401 kts 109°
2026-05-03 22:15 -31.46550 -63.48543 18261 ft 398 kts 127°
2026-05-03 22:16 -31.48352 -63.46126 18697 ft 392 kts 146°
2026-05-03 22:16 -31.50649 -63.44478 19157 ft 384 kts 163°
2026-05-03 22:16 -31.53200 -63.43679 19646 ft 378 kts 176°
2026-05-03 22:16 -31.55803 -63.43166 20188 ft 380 kts 176°
2026-05-03 22:17 -31.58418 -63.42642 20712 ft 383 kts 176°
2026-05-03 22:17 -31.61049 -63.42110 21220 ft 385 kts 176°
2026-05-03 22:17 -31.63695 -63.41568 21728 ft 387 kts 176°
2026-05-03 22:17 -31.66349 -63.41023 22230 ft 389 kts 176°
2026-05-03 22:18 -31.69023 -63.40478 22736 ft 391 kts 176°
2026-05-03 22:18 -31.71718 -63.39931 23234 ft 393 kts 176°
2026-05-03 22:18 -31.74423 -63.39380 23697 ft 396 kts 176°
2026-05-03 22:18 -31.77142 -63.38819 24105 ft 399 kts 175°
2026-05-03 22:19 -31.79809 -63.37763 24490 ft 414 kts 158°
2026-05-03 22:19 -31.82166 -63.35714 24870 ft 432 kts 140°
2026-05-03 22:19 -31.84177 -63.33064 25235 ft 437 kts 137°
2026-05-03 22:19 -31.86172 -63.30349 25623 ft 440 kts 136°
2026-05-03 22:20 -31.88166 -63.27605 26005 ft 442 kts 136°
2026-05-03 22:20 -31.90147 -63.24872 26379 ft 445 kts 136°
2026-05-03 22:20 -31.92163 -63.22094 26742 ft 447 kts 137°
2026-05-03 22:20 -31.94192 -63.19304 27123 ft 450 kts 137°
2026-05-03 22:21 -31.96236 -63.16501 27487 ft 452 kts 137°
2026-05-03 22:21 -31.98293 -63.13685 27845 ft 455 kts 137°
2026-05-03 22:21 -32.00361 -63.10856 28221 ft 457 kts 137°
2026-05-03 22:21 -32.02443 -63.08009 28581 ft 460 kts 137°
2026-05-03 22:22 -32.04539 -63.05138 28946 ft 462 kts 137°
2026-05-03 22:22 -32.06637 -63.02261 29311 ft 465 kts 137°
2026-05-03 22:22 -32.08746 -62.99356 29670 ft 468 kts 137°
2026-05-03 22:22 -32.10866 -62.96435 30037 ft 470 kts 137°
2026-05-03 22:23 -32.12999 -62.93498 30347 ft 472 kts 137°
2026-05-03 22:23 -32.15142 -62.90546 30646 ft 475 kts 137°
2026-05-03 22:23 -32.17296 -62.87580 30966 ft 477 kts 137°
2026-05-03 22:23 -32.19465 -62.84596 31307 ft 478 kts 137°
2026-05-03 22:24 -32.21623 -62.81615 31725 ft 477 kts 137°
2026-05-03 22:24 -32.23774 -62.78637 32191 ft 475 kts 137°
2026-05-03 22:24 -32.25911 -62.75674 32641 ft 474 kts 137°
2026-05-03 22:24 -32.28048 -62.72717 33076 ft 473 kts 137°
2026-05-03 22:25 -32.30186 -62.69763 33509 ft 472 kts 137°
2026-05-03 22:25 -32.32316 -62.66815 33927 ft 471 kts 137°
2026-05-03 22:25 -32.34440 -62.63865 34310 ft 471 kts 137°
2026-05-03 22:25 -32.36558 -62.60919 34676 ft 470 kts 138°
2026-05-03 22:26 -32.38676 -62.57974 34942 ft 471 kts 138°
2026-05-03 22:26 -32.42915 -62.52086 35013 ft 468 kts 138°
2026-05-03 22:27 -32.47117 -62.46223 35016 ft 466 kts 137°
2026-05-03 22:27 -32.51288 -62.40405 35019 ft 466 kts 138°
2026-05-03 22:28 -32.55479 -62.34553 35015 ft 466 kts 137°
2026-05-03 22:28 -32.59665 -62.28690 35018 ft 466 kts 137°
2026-05-03 22:29 -32.63856 -62.22808 35023 ft 466 kts 137°
2026-05-03 22:29 -32.68043 -62.16916 35032 ft 466 kts 136°
2026-05-03 22:30 -32.71852 -62.10601 35057 ft 471 kts 131°
2026-05-03 22:30 -32.75559 -62.04243 35050 ft 471 kts 131°
2026-05-03 22:31 -32.79292 -61.97840 35045 ft 471 kts 131°
2026-05-03 22:31 -32.83016 -61.91452 35048 ft 470 kts 132°
2026-05-03 22:32 -32.86735 -61.85060 35052 ft 469 kts 132°
2026-05-03 22:32 -32.90443 -61.78681 35056 ft 468 kts 131°
2026-05-03 22:33 -32.94144 -61.72306 35048 ft 468 kts 131°
2026-05-03 22:33 -32.97236 -61.66962 35035 ft 468 kts 131°
2026-05-03 22:34 -33.00930 -61.60566 35034 ft 468 kts 131°
2026-05-03 22:34 -33.04624 -61.54173 35034 ft 468 kts 131°
2026-05-03 22:35 -33.08312 -61.47767 35037 ft 469 kts 131°
2026-05-03 22:35 -33.11970 -61.41388 35046 ft 469 kts 131°
2026-05-03 22:36 -33.15677 -61.34920 35046 ft 469 kts 131°
2026-05-03 22:36 -33.19342 -61.28534 35049 ft 469 kts 131°
2026-05-03 22:37 -33.23044 -61.22068 35060 ft 468 kts 131°
2026-05-03 22:37 -33.26691 -61.15683 35060 ft 468 kts 131°
2026-05-03 22:38 -33.30354 -61.09244 35057 ft 468 kts 131°
2026-05-03 22:38 -33.34007 -61.02791 35059 ft 469 kts 131°
2026-05-03 22:39 -33.37656 -60.96322 35077 ft 468 kts 131°
2026-05-03 22:39 -33.41293 -60.89841 35068 ft 468 kts 131°
2026-05-03 22:40 -33.44923 -60.83362 35068 ft 468 kts 131°
2026-05-03 22:40 -33.48550 -60.76882 35059 ft 468 kts 131°
2026-05-03 22:41 -33.52180 -60.70406 35065 ft 468 kts 131°
2026-05-03 22:41 -33.55797 -60.63917 35076 ft 467 kts 130°
2026-05-03 22:42 -33.59404 -60.57429 35070 ft 467 kts 131°
2026-05-03 22:42 -33.63013 -60.50943 35066 ft 467 kts 131°
2026-05-03 22:43 -33.66593 -60.44511 34903 ft 463 kts 131°
2026-05-03 22:43 -33.68361 -60.41314 34652 ft 457 kts 131°
2026-05-03 22:43 -33.70112 -60.38141 34435 ft 455 kts 131°
2026-05-03 22:43 -33.71859 -60.34976 34199 ft 453 kts 131°
2026-05-03 22:44 -33.73595 -60.31829 33952 ft 451 kts 131°
2026-05-03 22:44 -33.75326 -60.28694 33686 ft 449 kts 131°
2026-05-03 22:44 -33.77043 -60.25586 33333 ft 445 kts 131°
2026-05-03 22:44 -33.78757 -60.22486 32830 ft 443 kts 131°
2026-05-03 22:45 -33.80459 -60.19406 32328 ft 441 kts 130°
2026-05-03 22:45 -33.82152 -60.16339 31861 ft 439 kts 130°
2026-05-03 22:45 -33.83836 -60.13282 31402 ft 437 kts 130°
2026-05-03 22:45 -33.85512 -60.10248 30991 ft 434 kts 130°
2026-05-03 22:46 -33.87188 -60.07239 30551 ft 432 kts 130°
2026-05-03 22:46 -33.88859 -60.04251 30152 ft 429 kts 130°
2026-05-03 22:46 -33.90527 -60.01278 29704 ft 426 kts 130°
2026-05-03 22:46 -33.92174 -59.98343 29315 ft 422 kts 130°
2026-05-03 22:47 -33.93806 -59.95427 28930 ft 418 kts 130°
2026-05-03 22:47 -33.95423 -59.92532 28547 ft 415 kts 130°
2026-05-03 22:47 -33.97027 -59.89658 28170 ft 412 kts 130°
2026-05-03 22:47 -33.98616 -59.86805 27793 ft 408 kts 130°
2026-05-03 22:48 -34.00192 -59.83973 27438 ft 405 kts 130°
2026-05-03 22:48 -34.01757 -59.81158 27045 ft 403 kts 130°
2026-05-03 22:48 -34.03314 -59.78353 26668 ft 400 kts 130°
2026-05-03 22:48 -34.04857 -59.75573 26279 ft 398 kts 130°
2026-05-03 22:49 -34.06387 -59.72815 25903 ft 395 kts 130°
2026-05-03 22:49 -34.07780 -59.70298 25557 ft 393 kts 129°
2026-05-03 22:49 -34.09298 -59.67561 25161 ft 392 kts 129°
2026-05-03 22:49 -34.10811 -59.64834 24771 ft 390 kts 129°
2026-05-03 22:50 -34.12316 -59.62114 24365 ft 389 kts 129°
2026-05-03 22:50 -34.13816 -59.59396 23963 ft 389 kts 129°
2026-05-03 22:50 -34.15314 -59.56682 23566 ft 388 kts 129°
2026-05-03 22:50 -34.16809 -59.53973 23103 ft 387 kts 129°
2026-05-03 22:51 -34.18295 -59.51279 22699 ft 384 kts 129°
2026-05-03 22:51 -34.19773 -59.48594 22296 ft 382 kts 129°
2026-05-03 22:51 -34.21237 -59.45930 21891 ft 379 kts 129°
2026-05-03 22:51 -34.22693 -59.43280 21491 ft 377 kts 128°
2026-05-03 22:52 -34.24120 -59.40625 21086 ft 376 kts 127°
2026-05-03 22:52 -34.25522 -59.37967 20689 ft 374 kts 127°
2026-05-03 22:52 -34.26909 -59.35312 20296 ft 373 kts 127°
2026-05-03 22:52 -34.28289 -59.32667 19894 ft 371 kts 127°
2026-05-03 22:53 -34.29669 -59.30028 19483 ft 370 kts 127°
2026-05-03 22:53 -34.31044 -59.27405 19095 ft 369 kts 127°
2026-05-03 22:53 -34.32417 -59.24787 18706 ft 368 kts 127°
2026-05-03 22:53 -34.33787 -59.22174 18297 ft 367 kts 127°
2026-05-03 22:54 -34.35154 -59.19570 17864 ft 365 kts 127°
2026-05-03 22:54 -34.36511 -59.16982 17468 ft 363 kts 127°
2026-05-03 22:54 -34.37858 -59.14408 17084 ft 361 kts 126°
2026-05-03 22:54 -34.39182 -59.11878 16702 ft 359 kts 126°
2026-05-03 22:55 -34.40515 -59.09333 16310 ft 357 kts 126°
2026-05-03 22:55 -34.41840 -59.06798 15933 ft 355 kts 126°
2026-05-03 22:55 -34.43160 -59.04275 15545 ft 354 kts 126°
2026-05-03 22:55 -34.44493 -59.01728 15174 ft 352 kts 131°
2026-05-03 22:56 -34.45801 -58.99224 14771 ft 351 kts 132°
2026-05-03 22:56 -34.47084 -58.96759 14396 ft 348 kts 132°
2026-05-03 22:56 -34.48370 -58.94281 14019 ft 346 kts 131°
2026-05-03 22:56 -34.49647 -58.91821 13624 ft 343 kts 131°
2026-05-03 22:57 -34.50911 -58.89383 13234 ft 340 kts 131°
2026-05-03 22:57 -34.52162 -58.86973 12865 ft 336 kts 131°
2026-05-03 22:57 -34.53399 -58.84588 12500 ft 332 kts 131°
2026-05-03 22:57 -34.54626 -58.82224 12134 ft 329 kts 131°
2026-05-03 22:58 -34.55832 -58.79879 11777 ft 328 kts 128°
2026-05-03 22:58 -34.56764 -58.77324 11411 ft 335 kts 117°
2026-05-03 22:58 -34.57502 -58.74646 11038 ft 333 kts 117°
2026-05-03 22:58 -34.58227 -58.72008 10689 ft 329 kts 117°
2026-05-03 22:59 -34.58950 -58.69381 10379 ft 325 kts 117°
2026-05-03 22:59 -34.59662 -58.66791 10074 ft 321 kts 117°
2026-05-03 22:59 -34.60354 -58.64272 9915 ft 311 kts 117°
2026-05-03 22:59 -34.61026 -58.61817 9726 ft 303 kts 117°
2026-05-03 23:00 -34.61685 -58.59403 9421 ft 300 kts 117°
2026-05-03 23:00 -34.62329 -58.57007 9099 ft 297 kts 116°
2026-05-03 23:00 -34.62961 -58.54640 8717 ft 293 kts 116°
2026-05-03 23:00 -34.63585 -58.52301 8107 ft 290 kts 116°
2026-05-03 23:01 -34.64202 -58.49983 7539 ft 286 kts 116°
2026-05-03 23:01 -34.64807 -58.47699 7016 ft 282 kts 115°
2026-05-03 23:01 -34.65398 -58.45461 6581 ft 274 kts 115°
2026-05-03 23:01 -34.65971 -58.43289 6205 ft 268 kts 115°
2026-05-03 23:02 -34.66547 -58.41130 5837 ft 269 kts 115°
2026-05-03 23:02 -34.67125 -58.38964 5484 ft 269 kts 114°
2026-05-03 23:02 -34.67697 -58.36808 5197 ft 266 kts 114°
2026-05-03 23:02 -34.68253 -58.34697 5070 ft 257 kts 114°
2026-05-03 23:03 -34.68764 -58.32684 4940 ft 240 kts 113°
2026-05-03 23:03 -34.69220 -58.30807 4811 ft 224 kts 110°
2026-05-03 23:03 -34.69143 -58.28949 4521 ft 228 kts 69°
2026-05-03 23:03 -34.68062 -58.27565 4249 ft 232 kts 28°
2026-05-03 23:04 -34.66493 -58.26978 3716 ft 240 kts
2026-05-03 23:04 -34.64848 -58.27194 3106 ft 236 kts 335°
2026-05-03 23:04 -34.63499 -58.28179 2686 ft 224 kts 309°
2026-05-03 23:04 -34.62587 -58.29624 2294 ft 206 kts 299°
2026-05-03 23:05 -34.61811 -58.30999 1981 ft 189 kts 299°
2026-05-03 23:05 -34.61103 -58.32255 1679 ft 171 kts 299°
2026-05-03 23:05 -34.60472 -58.33376 1467 ft 154 kts 298°
2026-05-03 23:05 -34.59885 -58.34426 1255 ft 147 kts 296°
2026-05-03 23:06 -34.59326 -58.35430 1078 ft 141 kts 296°
2026-05-03 23:06 -34.58752 -58.36510 1415 ft 155 kts 294°
2026-05-03 23:06 -34.58181 -58.37652 1899 ft 167 kts 296°
2026-05-03 23:06 -34.57554 -58.38934 2142 ft 185 kts 299°
2026-05-03 23:07 -34.56510 -58.39970 2404 ft 212 kts 336°
2026-05-03 23:07 -34.54994 -58.39933 2900 ft 231 kts 21°
2026-05-03 23:07 -34.53760 -58.38723 2995 ft 229 kts 65°
2026-05-03 23:07 -34.53474 -58.36919 3012 ft 216 kts 105°
2026-05-03 23:08 -34.53883 -58.35176 3017 ft 214 kts 116°
2026-05-03 23:08 -34.54445 -58.33501 3012 ft 214 kts 119°
2026-05-03 23:08 -34.55018 -58.31843 3008 ft 213 kts 118°
2026-05-03 23:08 -34.55572 -58.30176 3011 ft 214 kts 117°
2026-05-03 23:09 -34.56108 -58.28488 3014 ft 215 kts 116°
2026-05-03 23:09 -34.56627 -58.26788 3009 ft 215 kts 115°
2026-05-03 23:09 -34.57131 -58.25088 3012 ft 214 kts 115°
2026-05-03 23:09 -34.57671 -58.23419 3006 ft 210 kts 127°
2026-05-03 23:10 -34.58634 -58.22169 3013 ft 201 kts 154°
2026-05-03 23:10 -34.59893 -58.21630 2879 ft 187 kts 179°
2026-05-03 23:10 -34.61139 -58.21832 2742 ft 174 kts 202°
2026-05-03 23:10 -34.62100 -58.22557 2614 ft 155 kts 223°
2026-05-03 23:11 -34.62699 -58.23548 2527 ft 140 kts 241°
2026-05-03 23:11 -34.62971 -58.24666 2391 ft 137 kts 259°
2026-05-03 23:11 -34.62975 -58.25433 2331 ft 137 kts 270°
2026-05-03 23:11 -34.62736 -58.26542 2222 ft 136 kts 282°
2026-05-03 23:12 -34.62433 -58.27623 2125 ft 135 kts 282°
2026-05-03 23:12 -34.62131 -58.28702 2019 ft 135 kts 282°
2026-05-03 23:12 -34.61830 -58.29778 1924 ft 135 kts 284°
2026-05-03 23:12 -34.61531 -58.30855 1823 ft 135 kts 283°
2026-05-03 23:13 -34.61226 -58.31933 1728 ft 136 kts 284°
2026-05-03 23:13 -34.60742 -58.32927 1572 ft 137 kts 296°
2026-05-03 23:13 -34.60208 -58.33881 1368 ft 137 kts 299°
2026-05-03 23:13 -34.59671 -58.34844 1190 ft 137 kts 297°
2026-05-03 23:14 -34.59136 -58.35806 1000 ft 138 kts 300°
2026-05-03 23:14 -34.58597 -58.36773 835 ft 137 kts 298°
2026-05-03 23:14 -34.58066 -58.37725 702 ft 137 kts 300°
2026-05-03 23:14 -34.57541 -58.38668 544 ft 133 kts 303°
2026-05-03 23:15 -34.57030 -58.39587 351 ft 130 kts 307°
2026-05-03 23:15 -34.56533 -58.40494 96 ft 127 kts 307°
2026-05-03 23:15 -34.56079 -58.41268 25 ft 96 kts 306°
2026-05-03 23:15 -34.55878 -58.41635 24 ft 8 kts 302°
2026-05-03 23:16 -34.55851 -58.41688 24 ft 17 kts 302°
2026-05-03 23:16 -34.55764 -58.41851 24 ft 25 kts 304°
2026-05-03 23:16 -34.55684 -58.41882 27 ft 10 kts 39°
2026-05-03 23:16 -34.55695 -58.41834 27 ft 6 kts 122°
2026-05-03 23:17 -34.55723 -58.41781 25 ft 9 kts 122°
2026-05-03 23:17 -34.55754 -58.41710 29 ft 11 kts 116°
2026-05-03 23:17 -34.55792 -58.41617 30 ft 13 kts 117°
2026-05-03 23:17 -34.55839 -58.41511 30 ft 16 kts 118°
2026-05-03 23:18 -34.55874 -58.41425 28 ft 10 kts 115°
2026-05-03 23:18 -34.55906 -58.41343 25 ft 12 kts 101°
2026-05-03 23:18 -34.55870 -58.41285 25 ft 9 kts 30°
2026-05-03 23:18 -34.55840 -58.41279 28 ft 6 kts 14°
2026-05-03 23:19 -34.55802 -58.41252 25 ft 0 kts 36°
2026-05-03 23:19 -34.55799 -58.41250 25 ft 0 kts 35°